C/2017 W2 ( Leonard )

Japanese version
Home page
Updated on April 13, 2018

---------------------------------------------------------------------

* Profile

Discovery Date November 26, 2017
Magnitude 20.2 mag
Discoverer G. J. Leonard (Mount Lemmon)

* Pictures

* Orbital Elements

Epoch 2017 Oct. 14.0 TT = JDT 2458040.5
T 2017 Nov. 1.89818 TT                                  MPCW
q   3.9573325            (2000.0)            P               Q
n   0.01942085     Peri.  169.15120     -0.68705679     -0.02541093
a  13.7074687      Node   312.80927     +0.57025240     +0.60048842
e   0.7113010      Incl.   98.17824     +0.45029453     -0.79922960
P  50.75
From 154 observations 2017 Nov. 26-2018 Feb. 13, mean residual 0".4.

* Magnitudes Graph

        m1 = 10.5 + 5 log d + 10.0 log r

---------------------------------------------------------------------

The orbital elements are published on M.P.E.C. 2018-F152.
The magnitudes graphs are made with Comet for Windows.

---------------------------------------------------------------------

Copyright(C) Seiichi Yoshida (comet@aerith.net). All rights reserved.